If you wish to contribute or participate in the discussions about articles you are invited to join SKYbrary as a registered user

 Actions

Chengdu

From SKYbrary Wiki

ZUUU
Airport
ICAO: ZUUU
Summary
Name Chengdu
Region Asia and Pacific
Territory China CN.gif
Location Shuangliu County, Chengdu
Serving
Coordinates 30° 34' 39.82" N, 103° 56' 48.89" E
Runways
Designator Length Width Surface ROPS
2/20 3600 m11,811.024 ft <br /> 60 m196.85 ft <br /> CON no/no


METAR
Observation ZUUU 181800Z 00000MPS 9999 FEW020 SCT040 16/15 Q1015 NOSIG
Station Chengdu
Date/Time 18 April 2021 18:00:00
Wind direction
Wind speed kts
Lowest cloud amount few clouds
Temperature 16°C
Dew point 15°C
Humidity 93%
QNH 1015 hPa
Weather condition n/a


Chengdu Shuangliu International Airport

ICAO: ZUUU IATA: CTU

Description

Chengdu Shuangliu International Airport is the major airport in Chengdu, China. It is located in the north of Shuangliu County, about 16 km8.639 nm <br />16,000 m <br />52,493.438 ft <br /> southwest of downtown Chengdu.

Climatology

Warm continental climate/Humid continental climate (Köppen climate classification Dwa)

Maps

Terrain

Loading map...

Airport Layout

Loading map...


Accidents & Serious Incidents at or in vicinity of ZUUU

None on SKYbrary